2020-051B (45940 NORAD) Tracking and Keplerian Element Data

This shows tracking and keplerian element data for the satellite.

Feedback or suggestion? Click here.




ElementValue
Catalog45940
Name2020-051B
Epoch Orbit1976
Epoch Day336.90763267
Epoch Year2020
RAAN50.6984
Inclination97.4861
Eccentricity0.0012052
Argument of Perigee173.525
Mean Anonmoly299.6365
Mean Motion15.2548465
Decay Rate5.061E-05
L11 45940U 20051B 20336.90763267 .00005061 00000-0 20246-3 0 9993
L22 45940 97.4861 50.6984 0012052 173.5250 299.6365 15.25484650 19767

Live tracking and technical data element details for 2020-051B (NORAD 45940). 2020-051B can be tracked NOW for your location showing map with azimuth and elevation plus other details from your city location.

Track the satellite on the map from your city or location and see movement details for azimuth, elevation, latitude, longitude, range, height, and movement on the map or in text.







IsCatalogInMostPopularTable: catalog: 45940, numindb: 24
Update: records affected: 1



GetName: 45940 2020-051B

Hit Count: updated at: Wed, 02 Dec 2020 18:06:57 GMT